Wind_Speed
11 12 11 10 8 7 6 7 7 6 5 5 6 7 8 7 7 7 8 9 9 11 13 15 15 15 16 16 17 18 18 18 19 20 21 21 22 23 27 30 32 33 34
10 9 9 8 7 7 6 6 8 8 7 7 8 8 8 8 8 8 8 9 10 12 14 16 17 18 19 20 20 21 21 21 22 23 24 24 24 26 29 31 33 34 34
10 7 8 7 8 7 6 6 8 9 8 8 9 9 9 7 7 8 8 10 11 12 14 16 18 20 22 23 24 26 26 26 25 24 25 26 27 28 30 31 32 34 33
10 8 8 8 8 7 5 5 7 8 9 8 9 10 10 9 8 9 9 11 12 12 13 16 18 20 22 25 27 29 31 30 27 27 26 27 27 29 30 32 33 34 33
12 8 9 8 8 7 6 6 8 10 10 9 10 11 12 12 11 10 11 12 13 13 15 16 19 21 22 23 24 26 27 26 25 25 26 27 28 30 31 31 32 33 32
13 10 9 9 8 7 7 7 10 12 12 12 12 11 11 13 13 13 13 14 13 13 14 16 19 21 22 22 21 21 21 21 21 22 23 24 26 27 28 28 28 28 28
13 11 11 10 10 9 8 7 9 13 14 14 14 13 10 11 12 15 16 15 13 13 13 15 17 19 20 19 18 19 19 19 19 19 21 22 24 25 26 26 26 26 27
13 12 11 11 11 11 11 9 8 11 14 14 14 11 10 11 14 16 17 15 14 14 14 15 16 17 18 17 17 18 19 19 19 19 21 23 24 24 25 26 27 28 28
13 14 13 13 14 13 12 11 9 10 11 13 13 13 13 13 15 17 17 16 16 15 15 15 15 16 16 17 17 17 18 18 19 20 21 23 24 25 26 27 28 28 29
13 14 14 14 15 15 14 13 11 11 11 14 15 15 15 16 17 18 18 18 19 18 17 19 17 17 18 19 19 18 19 20 20 22 23 24 26 28 29 30 31 32 33
14 14 15 15 16 17 17 16 15 14 15 17 18 19 20 21 22 21 21 21 22 22 21 22 22 22 22 22 22 22 22 22 23 25 27 28 30 32 34 34 34 35 35
15 15 16 17 17 17 18 18 18 18 18 20 22 23 24 26 27 26 24 24 25 26 27 26 27 27 28 27 27 27 27 26 27 28 30 32 34 35 37 38 39 39 38
17 16 17 17 18 18 19 19 20 20 21 23 25 26 27 28 29 30 29 28 30 30 31 32 32 32 32 32 32 32 31 30 30 30 31 34 36 38 40 41 42 42 41
19 18 17 17 18 19 20 20 21 21 23 25 28 29 30 32 32 34 35 37 39 36 35 36 37 37 36 35 35 35 35 34 33 34 35 37 38 40 41 42 43 44 44
20 21 18 17 18 19 21 22 23 24 26 27 30 33 35 36 38 40 40 42 42 39 39 40 41 41 41 39 39 39 39 38 38 39 40 41 41 42 42 42 43 44 44
21 22 20 18 18 20 23 25 26 27 29 33 36 37 38 40 42 43 44 43 41 40 42 41 41 43 43 43 43 43 43 44 43 44 44 44 43 43 43 44 45 45 45
21 21 21 20 20 22 25 26 28 30 33 36 37 36 36 36 38 39 40 40 41 42 42 42 42 44 46 47 48 48 48 48 48 47 46 46 46 45 45 46 47 48 48
20 20 20 22 24 26 29 31 32 33 33 34 35 35 35 35 36 37 38 40 40 41 41 43 44 45 47 49 51 53 53 54 53 51 48 49 48 48 49 49 49 50 50
19 21 23 26 29 31 34 33 32 31 30 30 30 31 32 33 35 36 37 39 40 41 43 45 47 49 50 51 54 56 57 57 57 53 52 53 52 53 54 54 53 53 52
21 25 28 31 33 34 33 30 27 26 25 26 27 29 31 33 34 36 37 39 42 44 45 47 49 51 52 54 56 57 58 59 58 55 55 55 55 56 58 57 57 55 53
25 29 32 33 31 30 28 26 25 26 26 27 29 30 32 33 35 36 37 38 40 42 43 45 46 48 49 52 55 57 58 58 58 58 59 60 59 59 58 57 58 58 56
31 34 34 31 28 26 25 25 26 27 29 31 32 34 35 37 39 41 42 44 45 47 49 50 52 53 53 55 57 61 62 61 60 62 63 63 63 63 60 58 59 60 59
35 35 33 29 27 26 26 26 27 29 31 34 37 39 42 44 46 47 49 51 53 54 55 56 57 59 60 60 61 64 67 67 66 63 63 64 65 64 61 60 62 62 59
31 30 28 27 28 28 29 31 33 35 37 38 41 43 45 47 49 50 52 54 56 58 59 61 62 63 64 65 66 67 69 71 75 74 68 66 67 65 63 63 63 62 57
26 26 26 27 29 31 33 35 37 38 40 42 43 46 48 50 53 55 57 59 61 63 65 66 68 69 70 71 71 73 74 75 75 77 76 69 66 63 63 64 63 62 57
24 26 27 29 30 32 34 37 39 41 43 45 47 49 52 54 56 58 59 61 62 64 66 67 69 69 70 71 72 72 72 71 66 67 70 69 66 62 64 64 63 61 58
Wind_Direction
274 278 278 274 266 248 240 238 238 239 247 248 256 249 241 244 265 299 317 321 317 315 320 326 328 324 319 313 307 305 305 305 310 315 319 325 329 334 338 340 339 338 338
271 276 270 262 252 250 245 234 237 238 237 244 254 250 248 250 264 288 313 320 314 307 309 314 318 318 316 316 314 310 306 302 301 306 310 312 315 320 326 330 333 334 333
273 278 266 252 244 248 244 234 237 227 226 241 253 255 257 265 275 288 310 318 313 309 310 315 315 312 310 309 309 309 309 305 299 300 302 303 307 310 315 319 323 326 327
278 269 255 248 244 247 249 238 227 220 227 243 264 267 265 273 280 290 303 307 307 307 313 321 322 318 314 308 306 306 305 304 298 293 295 296 301 304 307 311 314 317 323
273 257 244 246 245 243 244 236 232 227 231 246 264 271 267 266 269 282 293 296 298 308 321 328 329 326 321 314 310 309 309 307 302 296 296 299 302 304 308 309 311 316 321
272 259 244 242 241 241 249 246 240 238 242 253 264 273 267 263 270 281 290 293 298 314 323 327 326 323 320 320 320 318 316 315 312 312 311 311 311 312 313 315 317 320 323
269 259 245 240 241 248 262 267 253 248 251 257 266 273 271 270 276 281 288 293 298 311 318 323 326 326 319 317 320 324 324 322 321 325 323 321 320 321 320 321 323 325 328
266 260 254 251 250 253 258 269 274 262 255 258 267 269 268 274 278 281 286 291 297 306 308 319 332 338 332 327 327 327 325 327 328 330 329 328 327 326 325 326 327 328 330
269 262 258 252 252 253 257 264 276 272 258 255 257 262 267 270 277 284 292 293 296 298 300 313 329 333 334 334 336 336 335 337 337 335 336 333 331 329 329 328 327 326 328
275 269 264 256 252 252 254 259 263 261 252 247 252 261 266 273 280 286 292 295 295 296 299 302 309 316 317 320 326 329 330 330 330 328 327 326 325 324 325 325 323 321 323
282 277 272 263 252 249 250 255 258 258 254 253 259 266 270 274 278 284 288 293 296 295 292 292 296 299 302 306 312 316 318 318 319 319 319 320 320 319 319 318 318 318 319
286 282 277 270 257 249 249 253 256 257 259 262 266 270 271 274 278 282 285 290 291 290 287 286 287 288 291 296 302 306 310 311 312 312 313 313 313 313 314 315 315 315 315
289 283 276 272 263 255 252 253 254 257 262 266 269 272 274 275 278 281 282 286 290 291 286 283 282 283 285 289 294 297 300 303 304 305 307 309 310 311 311 311 312 312 312
294 287 278 271 264 260 259 259 262 265 267 269 272 274 275 276 278 280 283 287 290 291 288 283 279 279 281 284 288 292 294 296 298 301 303 305 307 308 306 306 307 308 309
300 290 283 268 264 263 265 267 268 269 269 272 277 279 277 274 275 277 281 285 288 288 286 281 276 275 277 280 283 286 289 291 294 297 299 299 300 300 300 301 302 303 304
299 288 279 268 268 270 270 268 267 269 273 279 281 280 278 276 276 277 280 283 285 284 282 281 278 276 276 278 280 282 285 287 290 291 294 296 297 298 298 298 297 297 298
285 281 277 274 275 275 275 274 274 277 279 279 278 278 275 273 273 274 277 278 279 279 281 282 283 282 280 280 280 282 284 286 289 291 293 294 295 295 294 294 294 295 296
281 278 276 277 280 281 281 281 281 280 278 277 278 279 278 277 276 277 278 279 280 280 280 281 283 284 282 281 281 282 284 285 286 289 291 291 291 292 292 292 293 294 294
271 275 282 286 286 286 288 289 286 282 280 279 280 280 281 282 282 283 282 282 281 280 280 281 282 283 283 282 281 282 283 283 285 288 288 289 291 292 292 292 292 292 292
272 281 286 290 292 293 291 288 286 286 285 284 283 282 282 284 284 285 285 286 286 286 286 285 285 285 285 285 284 284 284 285 286 288 289 289 290 290 291 292 292 292 293
279 286 289 291 290 287 285 285 287 288 288 287 286 287 289 290 291 291 291 292 292 292 292 291 290 289 288 287 286 286 286 287 288 288 287 287 288 288 288 289 289 291 292
289 290 290 287 284 284 284 285 288 292 295 296 298 300 300 300 300 300 300 299 298 297 296 294 293 291 289 287 287 287 288 287 287 286 287 287 287 287 287 287 288 290 292
289 289 289 289 289 289 291 294 296 298 301 302 303 304 303 303 303 302 302 301 299 297 296 294 293 292 291 289 288 288 289 288 285 285 285 285 285 286 287 287 288 290 292
285 287 290 293 295 298 300 301 304 305 305 303 303 303 303 303 302 300 299 297 295 294 293 293 292 291 290 289 289 289 289 289 289 288 286 285 285 285 286 287 287 289 291
285 288 292 295 299 302 303 304 304 303 302 302 301 300 299 298 296 295 294 293 293 292 291 291 290 290 290 290 291 291 290 289 289 289 289 287 285 285 284 285 287 290 293
285 290 295 299 300 301 301 302 301 300 299 298 298 297 296 295 295 295 295 295 294 293 292 291 291 291 291 291 291 291 292 291 291 289 288 286 285 284 284 286 289 291 294
Height
5879 5878 5877 5876 5876 5876 5875 5876 5877 5878 5877 5877 5878 5878 5877 5876 5876 5874 5874 5872 5871 5870 5868 5867 5864 5863 5861 5859 5857 5855 5854 5853 5850 5847 5844 5842 5840 5838 5835 5832 5828 5825 5821
5877 5876 5876 5875 5875 5875 5874 5875 5876 5876 5875 5876 5877 5877 5877 5876 5875 5874 5873 5871 5870 5868 5867 5865 5862 5861 5859 5856 5854 5852 5850 5849 5847 5844 5841 5839 5837 5835 5832 5829 5825 5822 5818
5875 5874 5874 5873 5873 5873 5873 5873 5874 5874 5874 5874 5876 5876 5875 5874 5874 5873 5871 5870 5869 5867 5865 5862 5860 5858 5856 5853 5851 5848 5846 5845 5841 5839 5837 5835 5832 5830 5828 5825 5822 5819 5816
5873 5872 5872 5871 5872 5872 5872 5871 5872 5872 5872 5873 5874 5873 5873 5872 5872 5872 5870 5868 5866 5864 5862 5860 5858 5856 5853 5850 5847 5844 5842 5840 5837 5834 5833 5830 5828 5826 5823 5821 5818 5816 5812
5872 5871 5870 5870 5870 5870 5870 5870 5870 5870 5871 5871 5871 5871 5870 5870 5870 5869 5867 5865 5863 5861 5859 5857 5855 5852 5849 5846 5843 5840 5837 5835 5832 5829 5828 5826 5824 5821 5819 5816 5814 5811 5808
5870 5870 5869 5869 5868 5868 5868 5868 5868 5869 5869 5869 5869 5868 5867 5867 5867 5866 5863 5861 5860 5858 5856 5854 5852 5849 5845 5842 5839 5836 5834 5831 5828 5826 5823 5821 5819 5817 5814 5812 5809 5806 5802
5868 5868 5867 5867 5867 5866 5867 5866 5866 5866 5867 5867 5867 5866 5865 5864 5863 5862 5859 5858 5857 5855 5853 5851 5848 5845 5842 5839 5836 5833 5831 5828 5824 5822 5820 5818 5815 5813 5810 5807 5804 5801 5798
5866 5866 5865 5865 5865 5865 5866 5865 5864 5863 5864 5864 5864 5863 5862 5860 5859 5858 5856 5855 5854 5852 5850 5848 5845 5842 5839 5836 5834 5831 5828 5825 5821 5819 5816 5814 5811 5809 5806 5803 5800 5798 5795
5863 5863 5863 5864 5864 5864 5863 5862 5861 5861 5861 5861 5861 5860 5858 5857 5856 5855 5853 5852 5850 5848 5846 5845 5842 5840 5837 5834 5831 5828 5825 5822 5818 5815 5813 5810 5808 5805 5802 5799 5796 5794 5790
5860 5861 5861 5861 5861 5861 5861 5861 5859 5859 5858 5858 5857 5856 5855 5854 5853 5851 5850 5848 5846 5844 5842 5841 5839 5837 5835 5832 5829 5825 5822 5819 5815 5812 5809 5806 5803 5801 5797 5794 5791 5788 5784
5857 5858 5857 5858 5858 5858 5858 5858 5857 5856 5855 5855 5854 5853 5852 5851 5849 5848 5846 5845 5843 5841 5838 5837 5835 5833 5831 5828 5825 5822 5818 5815 5812 5809 5805 5802 5799 5796 5792 5789 5786 5782 5779
5855 5855 5854 5854 5853 5853 5854 5854 5853 5852 5852 5851 5851 5850 5848 5846 5845 5843 5842 5841 5839 5836 5834 5832 5830 5828 5825 5823 5820 5817 5814 5810 5807 5804 5800 5797 5793 5790 5786 5782 5779 5776 5772
5852 5852 5851 5850 5850 5850 5850 5850 5849 5849 5848 5847 5846 5845 5843 5842 5840 5838 5837 5835 5833 5831 5829 5827 5824 5821 5819 5816 5813 5811 5808 5805 5801 5797 5794 5790 5786 5782 5779 5776 5773 5770 5766
5848 5849 5849 5848 5847 5847 5846 5846 5845 5845 5844 5842 5841 5840 5838 5836 5834 5832 5830 5828 5826 5824 5822 5819 5817 5814 5811 5809 5806 5803 5800 5797 5794 5790 5787 5783 5779 5776 5772 5768 5764 5761 5758
5846 5845 5846 5846 5844 5844 5843 5842 5841 5840 5839 5837 5835 5833 5831 5830 5828 5825 5823 5821 5818 5817 5814 5811 5809 5806 5804 5801 5798 5795 5791 5789 5786 5783 5780 5775 5771 5767 5763 5760 5756 5752 5749
5843 5842 5841 5841 5841 5841 5840 5838 5837 5835 5833 5831 5828 5825 5823 5821 5819 5817 5815 5813 5811 5808 5806 5803 5800 5797 5795 5792 5789 5785 5782 5779 5776 5773 5770 5766 5763 5758 5754 5751 5747 5743 5739
5839 5838 5837 5837 5837 5835 5834 5833 5831 5829 5827 5823 5819 5817 5815 5813 5810 5808 5807 5805 5802 5800 5797 5794 5791 5788 5785 5782 5779 5775 5773 5770 5767 5763 5759 5755 5751 5747 5743 5740 5737 5734 5730
5835 5835 5834 5833 5831 5830 5829 5827 5824 5822 5820 5816 5813 5810 5808 5806 5805 5803 5800 5798 5795 5792 5790 5786 5783 5780 5776 5773 5769 5766 5763 5760 5756 5753 5750 5744 5740 5737 5733 5730 5726 5723 5719
5832 5831 5831 5829 5826 5824 5822 5819 5816 5814 5811 5808 5806 5803 5801 5799 5798 5795 5793 5790 5786 5784 5781 5778 5774 5770 5767 5763 5759 5755 5752 5748 5745 5742 5737 5732 5730 5726 5722 5719 5715 5710 5706
5828 5827 5826 5823 5820 5817 5814 5811 5808 5806 5804 5801 5798 5796 5794 5792 5790 5788 5786 5782 5779 5776 5773 5769 5765 5761 5757 5753 5748 5744 5740 5736 5733 5730 5725 5720 5717 5713 5709 5706 5702 5698 5694
5824 5822 5820 5817 5814 5810 5807 5804 5802 5799 5797 5794 5792 5790 5788 5785 5782 5780 5777 5774 5770 5767 5763 5760 5756 5752 5748 5742 5737 5733 5729 5726 5722 5718 5712 5707 5704 5698 5695 5691 5687 5685 5682
5815 5814 5812 5809 5807 5805 5802 5799 5797 5794 5791 5788 5785 5783 5780 5777 5774 5771 5768 5765 5762 5758 5753 5749 5745 5741 5737 5730 5725 5719 5717 5716 5711 5704 5699 5695 5691 5687 5684 5679 5674 5671 5669
5808 5806 5803 5801 5799 5797 5795 5793 5791 5788 5785 5782 5779 5775 5772 5769 5765 5761 5758 5754 5749 5745 5741 5736 5731 5726 5722 5717 5712 5706 5701 5699 5696 5694 5687 5682 5677 5674 5670 5666 5662 5657 5655
5801 5799 5797 5795 5792 5790 5788 5786 5783 5780 5777 5774 5770 5766 5762 5758 5753 5749 5746 5741 5736 5731 5727 5722 5716 5711 5706 5702 5697 5692 5686 5680 5674 5672 5673 5667 5661 5658 5654 5650 5646 5642 5640
5796 5794 5791 5789 5786 5784 5781 5778 5775 5771 5768 5764 5760 5756 5752 5747 5742 5738 5734 5729 5723 5717 5712 5707 5701 5695 5690 5685 5680 5674 5668 5663 5657 5650 5648 5649 5645 5642 5638 5634 5630 5626 5624
5790 5788 5786 5783 5779 5776 5772 5769 5766 5762 5758 5754 5749 5745 5740 5735 5730 5725 5720 5715 5709 5703 5697 5691 5685 5679 5673 5668 5662 5655 5649 5643 5639 5632 5626 5625 5624 5625 5621 5617 5614 5610 5606